TimeHST,TemperatureF,Dew PointF,Humidity,Sea Level PressureIn,VisibilityMPH,Wind Direction,Wind SpeedMPH,Gust SpeedMPH,PrecipitationIn,Events,Conditions,WindDirDegrees,DateUTC
12:53 AM,75.0,70.0,84,30.02,10.0,NE,3.5,-,N/A,,Overcast,50,2012-09-21 10:53:00
1:53 AM,75.0,70.0,84,30.01,10.0,North,4.6,-,N/A,,Mostly Cloudy,10,2012-09-21 11:53:00
2:53 AM,73.0,68.0,84,30.00,10.0,NE,4.6,-,N/A,,Scattered Clouds,40,2012-09-21 12:53:00
3:53 AM,73.0,68.0,84,29.99,10.0,ENE,5.8,-,N/A,,Clear,60,2012-09-21 13:53:00
4:53 AM,73.0,68.0,84,29.99,10.0,NE,3.5,-,N/A,,Clear,40,2012-09-21 14:53:00
5:53 AM,73.0,68.0,84,30.00,10.0,NE,3.5,-,N/A,,Mostly Cloudy,50,2012-09-21 15:53:00
6:53 AM,73.0,68.0,84,30.00,10.0,NNE,6.9,-,N/A,,Clear,30,2012-09-21 16:53:00
7:53 AM,78.1,68.0,71,30.01,10.0,North,8.1,-,N/A,,Clear,10,2012-09-21 17:53:00
8:53 AM,80.1,66.9,64,30.01,10.0,NW,6.9,-,N/A,,Clear,320,2012-09-21 18:53:00
9:53 AM,81.0,68.0,65,30.01,10.0,Variable,6.9,-,N/A,,Clear,0,2012-09-21 19:53:00
10:53 AM,81.0,68.0,65,30.00,10.0,West,6.9,-,N/A,,Clear,270,2012-09-21 20:53:00
11:53 AM,82.9,69.1,63,29.99,10.0,SW,9.2,-,N/A,,Scattered Clouds,230,2012-09-21 21:53:00
12:53 PM,82.0,66.0,58,29.96,10.0,WSW,8.1,-,N/A,,Overcast,240,2012-09-21 22:53:00
1:53 PM,82.0,66.9,60,29.94,10.0,SSW,10.4,-,N/A,,Overcast,210,2012-09-21 23:53:00
2:53 PM,82.0,66.9,60,29.93,10.0,SSW,10.4,-,N/A,,Overcast,210,2012-09-22 00:53:00
3:53 PM,82.0,66.9,60,29.92,10.0,South,10.4,-,N/A,,Overcast,190,2012-09-22 01:53:00
4:53 PM,81.0,66.9,62,29.93,10.0,SSW,9.2,-,N/A,,Overcast,210,2012-09-22 02:53:00
5:53 PM,80.1,66.9,64,29.94,10.0,SSW,9.2,-,N/A,,Overcast,210,2012-09-22 03:53:00
6:53 PM,80.1,68.0,67,29.96,10.0,SSW,4.6,-,N/A,,Overcast,200,2012-09-22 04:53:00
7:53 PM,79.0,64.9,62,29.98,10.0,NNW,5.8,-,N/A,,Partly Cloudy,340,2012-09-22 05:53:00
8:53 PM,79.0,64.0,60,29.99,10.0,South,3.5,-,N/A,,Clear,170,2012-09-22 06:53:00
9:53 PM,75.9,66.9,74,30.00,10.0,NE,6.9,-,N/A,,Clear,50,2012-09-22 07:53:00
10:53 PM,78.1,60.1,54,30.00,10.0,Variable,3.5,-,N/A,,Clear,0,2012-09-22 08:53:00
11:53 PM,75.9,62.1,62,30.00,10.0,ESE,8.1,-,N/A,,Clear,110,2012-09-22 09:53:00